Plum, TX

9:00 PM CST on December 04, 2016 (GMT -0600)
La Grange

Weather History for K3T5 - December, 2013

Change the Weather History Date:

Saturday, December 21, 2013

  Actual Average (KAUS) Record (KAUS)
Temperature  
Mean Temperature 64 °F 50 °F  
Max Temperature 75 °F 63 °F 81 °F (1970)
Min Temperature 52 °F 36 °F 22 °F (2012)
Degree Days  
Heating Degree Days 2 16  
Month to date heating degree days 302  
Since 1 July heating degree days 587  
Cooling Degree Days 0 0  
Month to date cooling degree days 5  
Year to date cooling degree days 2746  
Growing Degree Days 14 (Base 50)    
Moisture  
Dew Point 8 °F    
Average Humidity 12    
Maximum Humidity 38    
Minimum Humidity 4    
Precipitation  
Precipitation 0.41 in 0.07 in 3.05 in (1991)
Month to date precipitation 1.47  
Year to date precipitation 33.90  
Snow  
Snow 0.00 in - - ()
Month to date snowfall  
Since 1 July snowfall  
Snow Depth -    
Sea Level Pressure  
Sea Level Pressure 29.66 in    
Wind  
Wind Speed 8 mph (South)    
Max Wind Speed 22 mph    
Max Gust Speed 30 mph    
Visibility 8 miles    
Events Rain , Thunderstorm    
T = Trace of Precipitation, MM = Missing Value Source: NWS Daily Summary

Daily Weather History Graph

Daily Weather History Graph

Search for Another Location

Airport or City:

Trip Planner

Search our weather history database for the weather conditions in past years. The results will help you decide how hot, cold, wet, or windy it might be!

Date:

Astronomy

Dec. 21, 2013 Rise Set
Actual Time 7:19 AM CST 5:32 PM CST
Civil Twilight 6:53 AM CST 5:59 PM CST
Nautical Twilight 6:23 AM CST 6:29 PM CST
Astronomical Twilight 5:53 AM CST 6:58 PM CST
Moon 9:33 PM CST (12/21) 10:00 AM CST (12/21)
Length of Visible Light 11h 06m
Length of Day
10h 13m
Waning Gibbous, 84% of the Moon is Illuminated
Dec 21
Waning Gibbous
Dec 25
Last Quarter
Jan 1
New
Jan 7
First Quarter
Jan 15
Full

Hourly Weather History & Observations

Time (CST) Temp. Dew Point Humidity Pressure Visibility Wind Dir Wind Speed Gust Speed Precip Events Conditions
12:15 AM 75.6 °F 3.6 °F 6% 29.67 in 10.0 mi South 16.1 mph 20.7 mph N/A   Mostly Cloudy
12:35 AM 75.6 °F 2.5 °F 6% 29.66 in 10.0 mi South 13.8 mph 17.3 mph N/A   Mostly Cloudy
12:55 AM 75.2 °F 3.7 °F 6% 29.65 in 7.0 mi South 12.7 mph 19.6 mph N/A   Scattered Clouds
1:15 AM 74.8 °F 11.1 °F 9% 29.64 in 7.0 mi South 12.7 mph 17.3 mph N/A   Scattered Clouds
1:35 AM 74.7 °F 10.9 °F 9% 29.64 in 7.0 mi South 11.5 mph 18.4 mph N/A   Scattered Clouds
1:55 AM 73.6 °F 19.9 °F 13% 29.64 in 5.0 mi South 9.2 mph - N/A   Drizzle
2:15 AM 73.6 °F 13.8 °F 10% 29.68 in 7.0 mi SSW 6.9 mph - N/A   Mostly Cloudy
2:35 AM 73.6 °F 12.2 °F 10% 29.67 in 5.0 mi South 5.8 mph - 0.01 in Rain Light Rain
2:55 AM 73.6 °F 9.5 °F 8% 29.66 in 5.0 mi South 6.9 mph - 0.02 in Rain Light Rain
3:15 AM 73.6 °F -4.9 °F 4% 29.68 in 7.0 mi South 8.1 mph - N/A   Light Drizzle
3:35 AM 73.0 °F -18.0 °F 4% 29.66 in 7.0 mi Calm Calm - 0.01 in   Mostly Cloudy
3:55 AM - - N/A% 29.66 in 5.0 mi SSW 3.5 mph - 0.01 in Rain Light Rain
4:15 AM - - N/A% 29.65 in 5.0 mi Calm Calm - N/A Rain Rain
4:35 AM - - N/A% 29.63 in 4.0 mi Calm Calm - 0.01 in Rain Light Rain
4:55 AM - - N/A% 29.60 in 4.0 mi SE 8.1 mph - 0.02 in   Drizzle
5:15 AM - - N/A% 29.58 in 5.0 mi SSE 11.5 mph 18.4 mph N/A Rain Light Rain
5:35 AM - - N/A% 29.56 in 7.0 mi SSE 15.0 mph 23.0 mph N/A Rain , Thunderstorm Light Thunderstorms and Rain
5:55 AM - - N/A% 29.59 in 10.0 mi SSE 15.0 mph 21.9 mph 0.01 in Rain Light Rain
6:15 AM - - N/A% 29.59 in 7.0 mi South 12.7 mph 24.2 mph N/A Rain , Thunderstorm Light Thunderstorms and Rain
6:35 AM - - N/A% 29.58 in 10.0 mi SSE 15.0 mph 24.2 mph N/A Rain Light Rain
6:55 AM - - N/A% 29.58 in 7.0 mi South 17.3 mph 26.5 mph N/A   Drizzle
7:15 AM - - N/A% 29.57 in 10.0 mi South 15.0 mph 23.0 mph N/A   Mostly Cloudy
7:35 AM - - N/A% 29.58 in 7.0 mi South 15.0 mph 29.9 mph N/A Rain Light Rain
7:55 AM - - N/A% 29.55 in 7.0 mi SSE 21.9 mph 29.9 mph N/A   Scattered Clouds
8:15 AM - - N/A% 29.56 in 7.0 mi South 17.3 mph 29.9 mph N/A Rain Light Rain
8:35 AM - - N/A% 29.55 in 5.0 mi SSE 16.1 mph 24.2 mph 0.01 in Rain Light Rain
8:55 AM - - N/A% 29.54 in 7.0 mi SSE 17.3 mph 27.6 mph 0.01 in Rain Light Rain
9:15 AM - - N/A% 29.56 in 10.0 mi South 19.6 mph 26.5 mph N/A   Scattered Clouds
9:35 AM - - N/A% 29.59 in 7.0 mi SW 10.4 mph - N/A   Mostly Cloudy
9:55 AM - - N/A% 29.61 in 7.0 mi SW 5.8 mph - N/A   Overcast
10:15 AM - - N/A% 29.60 in 7.0 mi SW 6.9 mph - N/A   Overcast
10:35 AM 58.1 °F 32.4 °F 38% 29.63 in 5.0 mi NW 12.7 mph - N/A   Haze
10:55 AM 54.7 °F 19.6 °F 25% 29.63 in 3.0 mi NNW 13.8 mph - N/A Rain Light Rain
11:15 AM 53.2 °F 10.6 °F 18% 29.66 in 3.0 mi NW 13.8 mph 17.3 mph 0.01 in Rain Rain
11:35 AM 52.2 °F 6.4 °F 16% 29.68 in 5.0 mi NW 11.5 mph 20.7 mph 0.08 in Rain Light Rain
11:55 AM 53.2 °F -5.8 °F 9% 29.67 in 1.0 mi NNW 4.6 mph - 0.23 in Rain Heavy Rain
12:15 PM - - N/A% 29.66 in 10.0 mi Calm Calm - 0.02 in Rain Light Rain
12:35 PM - - N/A% 29.67 in 1.5 mi NW 5.8 mph - 0.10 in Rain Heavy Rain
12:55 PM - - N/A% 29.64 in 10.0 mi West 6.9 mph - 0.11 in   Scattered Clouds
1:15 PM - - N/A% 29.64 in 10.0 mi Calm Calm - N/A   Clear
1:35 PM - - N/A% 29.63 in 10.0 mi Calm Calm - N/A   Clear
1:55 PM - - N/A% 29.63 in 10.0 mi Calm Calm - N/A   Scattered Clouds
2:15 PM - - N/A% 29.63 in 10.0 mi Calm Calm - N/A   Scattered Clouds
2:35 PM - - N/A% 29.62 in 10.0 mi Calm Calm - N/A   Scattered Clouds
2:55 PM - - N/A% 29.62 in 10.0 mi Calm Calm - N/A   Scattered Clouds
3:15 PM - - N/A% 29.63 in 10.0 mi Calm Calm - N/A   Scattered Clouds
3:35 PM - - N/A% 29.62 in 10.0 mi Calm Calm - N/A   Scattered Clouds
3:55 PM - - N/A% 29.62 in 10.0 mi Calm Calm - N/A   Clear
4:15 PM - - N/A% 29.63 in 10.0 mi Calm Calm - N/A   Clear
4:35 PM - - N/A% 29.63 in 10.0 mi Calm Calm - N/A   Clear
4:55 PM - - N/A% 29.64 in 10.0 mi Calm Calm - N/A   Clear
5:15 PM - - N/A% 29.65 in 10.0 mi Calm Calm - N/A   Clear
5:35 PM - - N/A% 29.65 in 10.0 mi Calm Calm - N/A   Clear
5:55 PM - - N/A% 29.66 in 10.0 mi Calm Calm - N/A   Clear
6:15 PM - - N/A% 29.67 in 10.0 mi Calm Calm - N/A   Clear
6:35 PM - - N/A% 29.68 in 10.0 mi Calm Calm - N/A   Clear
6:55 PM - - N/A% 29.70 in 10.0 mi Calm Calm - N/A   Clear
7:15 PM - - N/A% 29.70 in 5.0 mi Calm Calm - N/A   Haze
7:35 PM - - N/A% 29.71 in 2.0 mi Calm Calm - N/A   Clear
7:55 PM - - N/A% 29.71 in 10.0 mi Calm Calm - N/A   Clear
8:15 PM - - N/A% 29.73 in 7.0 mi Calm Calm - N/A   Clear
8:35 PM - - N/A% 29.73 in 7.0 mi Calm Calm - N/A   Clear
8:55 PM - - N/A% 29.75 in 10.0 mi Calm Calm - N/A   Clear
9:15 PM - - N/A% 29.77 in 10.0 mi Calm Calm - N/A   Clear
9:35 PM - - N/A% 29.76 in 10.0 mi Calm Calm - N/A   Clear
9:55 PM - - N/A% 29.79 in 10.0 mi Calm Calm - N/A   Clear
10:15 PM - - N/A% 29.80 in 10.0 mi Calm Calm - N/A   Clear
10:35 PM - - N/A% 29.78 in 10.0 mi Calm Calm - N/A   Clear
10:55 PM - - N/A% 29.81 in 10.0 mi Calm Calm - N/A   Clear
11:15 PM - - N/A% 29.82 in 10.0 mi Calm Calm - N/A   Clear
11:35 PM - - N/A% 29.82 in 10.0 mi Calm Calm - N/A   Clear
11:55 PM - - N/A% 29.83 in 10.0 mi Calm Calm - N/A   Clear